Temp
90 89 86 84 85 84 84 84 83 83 81 80 80 80 80 80 80 78 79 80 79 77 80 81 80 80 79 80 82 80 79 78 73 73 74 75 73 72 72 70 71 69 67
91 88 88 86 85 84 84 84 84 82 83 80 79 79 80 79 80 78 77 80 76 77 80 79 79 82 77 80 79 77 79 76 75 69 71 72 72 71 72 68 74 79 70
92 91 89 89 89 88 84 83 82 82 81 81 79 78 79 79 79 78 77 77 76 78 79 78 79 79 77 78 78 77 79 78 75 72 70 72 72 73 71 72 72 73 75
94 92 89 89 89 89 86 83 82 81 80 79 79 78 79 80 80 79 78 76 76 79 79 78 79 79 77 78 78 77 79 76 75 73 72 73 72 72 72 69 68 71 68
91 91 88 87 88 86 84 82 82 80 79 78 78 77 78 78 83 79 77 76 76 75 77 78 79 73 71 71 75 76 77 75 75 73 72 72 71 70 69 72 71 70 68
89 90 86 84 84 84 84 81 80 78 77 77 77 76 76 83 74 76 79 79 77 75 75 77 74 72 71 72 72 70 70 75 72 72 71 69 69 71 70 70 70 67 65
88 87 83 83 82 82 82 80 79 78 78 76 77 77 74 78 71 73 75 80 78 77 75 75 77 80 73 72 70 71 70 71 72 74 72 71 70 71 72 69 70 70 68
86 85 83 82 81 81 81 79 77 78 78 75 77 76 75 73 69 70 73 77 75 75 75 75 75 72 73 73 72 74 75 75 71 77 74 74 74 73 71 71 71 71 70
84 83 83 82 81 81 79 77 77 77 77 76 76 74 73 72 66 67 71 78 76 75 75 75 76 73 69 71 73 72 72 69 66 66 66 67 68 71 74 70 68 66 65
83 83 84 82 82 80 79 78 78 79 78 77 75 73 74 73 64 65 69 79 75 73 73 73 71 73 67 67 70 72 70 69 70 68 68 67 69 68 69 69 69 65 66
85 84 83 83 82 81 80 80 78 78 77 76 75 76 78 76 69 63 64 73 75 73 72 72 71 64 64 63 63 73 72 72 71 68 68 67 67 68 68 68 69 68 66
84 83 82 82 84 83 80 78 77 77 77 77 76 76 77 75 67 62 63 63 70 74 73 74 71 62 61 62 63 66 68 70 71 69 68 68 68 68 68 68 68 68 70
84 82 82 82 82 82 80 78 79 78 79 77 77 76 76 76 73 63 62 62 63 71 71 73 66 60 60 61 63 65 64 69 70 69 69 70 71 73 73 70 70 69 70
83 82 82 81 80 82 83 82 81 80 79 78 78 75 76 75 72 70 67 68 63 66 66 70 66 65 65 67 65 63 67 69 69 69 71 72 73 72 72 71 70 69 68
84 83 83 83 80 82 82 82 81 83 81 81 80 80 77 77 77 67 67 72 72 70 70 71 67 68 67 68 70 69 68 69 69 70 70 70 71 71 71 72 72 71 69
85 85 85 85 84 83 82 82 68 71 63 64 65 75 82 72 61 58 57 58 59 59 68 71 70 70 70 71 70 71 71 70 70 71 71 72 72 71 72 72 72 72 70
86 85 87 83 87 83 84 82 82 71 59 56 61 56 58 68 55 55 53 55 56 57 71 71 73 74 74 74 74 73 73 74 71 72 72 72 73 73 72 73 72 72 71
80 70 87 87 89 88 86 85 85 84 80 81 61 59 53 56 53 52 52 53 64 61 73 73 73 75 77 77 76 76 76 76 74 73 72 74 74 74 73 73 73 72 72
78 73 75 78 73 74 89 88 88 86 86 84 83 59 57 49 50 49 50 73 73 73 73 75 76 78 78 78 78 78 77 77 77 75 75 75 75 75 74 75 75 66 67
75 69 68 71 71 67 67 67 68 78 87 86 85 82 74 61 68 67 64 75 76 78 77 75 77 79 79 79 78 77 78 78 78 77 77 76 75 75 75 75 75 74 73
77 74 66 67 69 67 66 65 67 66 67 85 89 85 70 74 77 76 74 75 78 79 79 80 78 78 79 79 79 80 80 81 80 79 79 78 77 76 75 76 77 76 76
80 74 73 70 69 66 65 65 64 65 66 69 89 88 58 77 80 80 79 78 79 80 83 81 82 82 81 81 81 81 82 82 81 81 80 80 79 79 79 78 77 76 76
82 80 75 70 67 63 64 66 65 65 66 68 68 70 71 78 78 81 81 82 81 81 82 82 84 85 86 85 85 84 83 83 83 83 82 81 81 80 79 79 78 76 76
83 82 80 73 69 66 65 64 63 60 66 71 68 66 67 70 76 80 83 85 84 84 84 83 83 86 86 87 90 89 87 86 87 86 84 83 82 77 81 80 80 79 78
85 84 82 75 72 68 67 66 67 67 66 68 68 68 66 68 71 74 87 86 88 87 85 84 84 81 84 86 88 89 80 56 74 66 81 82 83 81 81 79 75 74 72
83 85 84 83 79 76 71 68 67 67 66 67 69 69 66 65 68 69 74 83 89 91 87 82 86 82 83 82 84 73 54 45 62 48 76 80 80 76 71 71 71 70 70
MSLP
1009.00 1009.60 1010.54 1011.43 1012.01 1012.49 1012.70 1013.00 1013.42 1013.87 1014.13 1014.62 1014.78 1015.15 1015.50 1015.76 1016.01 1016.32 1016.41 1016.64 1016.90 1017.13 1017.14 1017.03 1017.22 1017.29 1017.16 1016.65 1016.59 1017.11 1017.73 1018.28 1019.06 1020.35 1020.71 1021.19 1021.73 1022.20 1022.75 1023.38 1023.70 1024.03 1024.43
1008.05 1008.87 1009.52 1010.34 1011.01 1011.65 1012.01 1012.48 1012.91 1013.31 1013.64 1014.16 1014.57 1014.73 1015.07 1015.45 1015.80 1016.06 1016.26 1016.53 1016.88 1016.93 1017.09 1017.37 1017.37 1017.28 1017.31 1017.16 1016.98 1017.41 1017.59 1018.00 1018.83 1019.95 1020.71 1021.19 1021.43 1022.13 1022.45 1023.09 1023.29 1023.23 1023.94
1007.27 1008.14 1008.76 1009.42 1009.92 1010.46 1011.16 1011.73 1012.40 1012.83 1013.25 1013.70 1014.19 1014.45 1014.70 1015.06 1015.35 1015.69 1015.94 1016.19 1016.60 1016.63 1016.95 1017.35 1017.35 1017.36 1017.44 1017.53 1017.50 1017.57 1017.63 1018.22 1019.02 1019.81 1020.67 1021.04 1021.24 1021.87 1022.33 1022.35 1022.53 1022.32 1023.26
1006.52 1007.37 1008.20 1008.83 1009.41 1009.87 1010.39 1011.11 1011.80 1012.29 1012.83 1013.41 1013.85 1014.10 1014.31 1014.56 1014.97 1015.39 1015.82 1016.01 1016.35 1016.44 1016.93 1017.32 1017.37 1017.54 1017.58 1017.67 1017.75 1017.67 1017.77 1018.24 1019.04 1019.60 1020.21 1020.82 1021.08 1021.45 1021.90 1022.18 1022.14 1022.37 1023.04
1006.16 1006.82 1007.61 1008.33 1008.92 1009.40 1009.97 1010.78 1011.38 1011.95 1012.57 1012.96 1013.33 1013.72 1013.85 1014.32 1014.62 1015.07 1015.53 1015.98 1016.26 1016.47 1016.92 1017.16 1017.39 1017.74 1017.75 1017.99 1017.97 1017.70 1017.86 1018.27 1018.62 1019.15 1019.53 1020.31 1020.72 1021.13 1021.45 1021.61 1021.73 1021.99 1022.57
1005.59 1006.43 1007.30 1008.18 1008.89 1009.38 1009.87 1010.57 1011.29 1011.76 1012.12 1012.62 1012.99 1013.36 1013.78 1013.83 1013.95 1014.79 1015.29 1015.67 1016.09 1016.28 1016.67 1017.07 1017.56 1017.73 1017.98 1018.19 1018.14 1017.70 1017.96 1018.35 1018.53 1018.89 1019.19 1019.73 1019.98 1020.50 1020.66 1020.96 1021.18 1021.75 1022.08
1005.57 1006.27 1007.20 1008.05 1008.78 1009.36 1009.89 1010.62 1011.08 1011.33 1011.77 1012.15 1012.51 1013.15 1013.79 1013.78 1014.16 1014.71 1015.14 1015.31 1015.75 1016.13 1016.56 1017.01 1017.39 1017.58 1017.91 1018.19 1018.38 1018.13 1018.21 1018.49 1018.50 1018.72 1018.94 1019.03 1019.44 1019.66 1019.93 1020.47 1020.68 1020.98 1021.18
1005.59 1006.36 1007.07 1007.94 1008.66 1009.17 1009.71 1010.35 1010.78 1011.13 1011.32 1011.63 1012.08 1012.71 1013.46 1014.24 1014.33 1014.71 1015.05 1015.16 1015.56 1015.97 1016.45 1016.81 1017.10 1017.24 1017.63 1018.08 1018.37 1018.33 1018.45 1018.75 1018.93 1018.86 1018.92 1019.05 1019.13 1019.37 1019.73 1020.09 1020.51 1020.88 1021.08
1005.70 1006.31 1006.99 1007.76 1008.47 1008.99 1009.51 1010.01 1010.39 1010.99 1011.09 1011.27 1011.82 1012.74 1013.64 1013.87 1014.53 1014.78 1015.02 1015.11 1015.41 1015.80 1016.16 1016.50 1016.78 1017.16 1017.58 1017.82 1018.13 1018.33 1018.44 1018.99 1019.25 1019.15 1019.17 1019.20 1019.37 1019.43 1019.69 1020.26 1020.73 1021.12 1021.34
1005.52 1006.29 1006.85 1007.54 1008.17 1008.71 1009.19 1009.81 1010.20 1010.53 1010.74 1011.19 1011.83 1012.45 1012.80 1013.76 1014.28 1014.63 1014.92 1014.86 1015.33 1015.75 1016.06 1016.36 1016.71 1017.03 1017.47 1017.73 1018.03 1018.00 1018.37 1018.68 1018.99 1019.28 1019.45 1019.59 1019.60 1019.79 1019.94 1020.17 1020.48 1020.85 1020.87
1005.85 1006.34 1006.81 1007.27 1007.87 1008.41 1008.90 1009.42 1009.89 1010.27 1010.65 1011.14 1011.53 1011.95 1012.55 1013.15 1013.95 1014.24 1014.61 1014.79 1015.00 1015.52 1015.88 1016.17 1016.42 1016.90 1017.31 1017.67 1017.79 1017.75 1018.05 1018.31 1018.70 1019.08 1019.30 1019.54 1019.73 1019.89 1020.10 1020.24 1020.34 1020.55 1020.49
1005.62 1006.30 1006.63 1007.07 1007.51 1008.08 1008.60 1009.09 1009.67 1010.14 1010.52 1010.97 1011.31 1011.74 1012.19 1012.87 1013.44 1013.99 1014.23 1014.49 1014.71 1014.80 1015.02 1015.45 1015.90 1016.54 1017.12 1017.42 1017.64 1017.67 1017.84 1018.04 1018.38 1018.71 1018.99 1019.17 1019.30 1019.46 1019.73 1019.81 1019.89 1019.88 1019.78
1005.34 1005.85 1006.28 1006.83 1007.21 1007.62 1008.18 1008.52 1009.24 1009.70 1010.07 1010.40 1010.77 1011.09 1011.57 1012.30 1012.99 1013.50 1013.92 1014.17 1014.56 1014.60 1014.49 1014.77 1015.21 1016.04 1016.69 1017.15 1017.50 1017.63 1017.79 1017.88 1017.93 1018.22 1018.13 1018.16 1018.14 1018.33 1018.35 1018.94 1019.12 1019.24 1019.33
1004.83 1005.40 1005.83 1006.26 1006.74 1006.96 1007.50 1007.84 1008.24 1008.71 1009.14 1009.73 1009.95 1010.31 1010.72 1011.61 1012.23 1012.95 1013.75 1013.92 1014.26 1014.52 1014.48 1014.59 1014.91 1015.64 1016.28 1016.57 1017.17 1017.47 1017.48 1017.40 1017.38 1017.32 1017.17 1017.03 1017.11 1017.38 1017.70 1018.01 1018.52 1018.88 1019.08
1004.40 1004.90 1005.19 1005.51 1006.04 1006.32 1006.59 1006.46 1007.03 1007.25 1007.81 1008.17 1008.72 1009.10 1009.79 1010.40 1010.71 1011.45 1012.31 1012.85 1013.29 1013.93 1014.42 1014.63 1015.27 1015.64 1016.07 1016.27 1016.40 1016.56 1016.78 1016.81 1016.72 1016.54 1016.60 1016.57 1016.51 1016.64 1016.84 1016.99 1017.27 1017.66 1017.94
1003.65 1004.04 1004.28 1004.52 1004.79 1005.34 1005.80 1006.01 1006.05 1006.47 1006.84 1007.33 1007.47 1007.93 1008.47 1008.91 1009.78 1010.65 1011.33 1012.01 1012.55 1013.18 1013.74 1014.07 1014.45 1014.57 1014.71 1014.93 1015.08 1015.15 1015.29 1015.52 1015.55 1015.71 1015.79 1015.84 1015.88 1015.88 1016.02 1016.12 1016.26 1016.55 1016.80
1002.71 1002.99 1002.93 1003.01 1002.99 1003.40 1003.72 1004.69 1005.31 1006.07 1006.12 1006.68 1006.83 1007.40 1007.92 1008.29 1008.95 1009.55 1010.39 1010.98 1011.52 1012.40 1012.80 1013.02 1013.02 1012.98 1013.18 1013.32 1013.39 1013.58 1013.63 1013.69 1014.30 1014.61 1014.74 1014.91 1015.09 1015.09 1015.19 1015.38 1015.48 1015.57 1015.74
1002.22 1001.74 1001.29 1001.08 1002.56 1003.07 1003.51 1002.66 1003.61 1004.44 1005.20 1005.83 1006.50 1007.15 1007.19 1007.49 1008.10 1008.63 1009.30 1010.64 1011.64 1011.90 1011.73 1011.84 1011.90 1011.72 1011.43 1011.41 1011.52 1011.71 1012.08 1012.51 1012.81 1013.20 1013.55 1013.66 1013.88 1014.18 1014.34 1014.29 1014.36 1014.40 1014.59
1002.70 1001.60 1000.65 1000.71 1001.89 1001.74 1002.13 1002.53 1001.55 1002.51 1003.17 1003.79 1004.44 1006.04 1006.77 1006.99 1007.28 1007.98 1008.73 1009.07 1009.50 1009.93 1010.14 1010.24 1010.52 1010.44 1010.29 1010.19 1010.24 1010.40 1010.74 1011.06 1011.38 1011.77 1012.10 1012.53 1012.73 1012.86 1012.97 1013.23 1013.38 1013.50 1013.70
1003.29 1002.64 1001.82 1002.55 1002.77 1001.90 1003.12 1003.26 1004.03 1004.54 1003.23 1003.36 1002.94 1003.49 1005.34 1007.02 1007.54 1008.03 1008.15 1007.52 1007.48 1007.52 1007.90 1008.37 1008.63 1008.75 1008.92 1008.80 1009.03 1009.14 1009.30 1009.50 1009.85 1010.22 1010.52 1010.89 1011.11 1011.45 1011.69 1011.96 1012.15 1012.40 1012.59
1003.38 1002.94 1002.58 1002.38 1002.43 1002.31 1003.67 1002.97 1004.36 1004.06 1004.37 1004.81 1001.90 1001.95 1003.17 1004.34 1005.18 1006.13 1006.72 1006.86 1006.42 1006.27 1006.24 1006.47 1006.96 1007.23 1007.34 1007.60 1007.80 1007.74 1007.83 1007.94 1008.22 1008.60 1008.89 1009.16 1009.63 1010.03 1010.32 1010.60 1010.99 1011.13 1011.28
1002.79 1002.95 1003.26 1003.21 1003.47 1003.73 1004.21 1003.77 1002.32 1004.29 1002.96 1003.88 1000.57 999.99 1001.27 1002.70 1003.00 1003.26 1004.02 1004.77 1005.25 1005.64 1005.42 1005.43 1005.28 1005.44 1005.70 1006.13 1006.40 1006.66 1006.78 1006.68 1006.85 1007.25 1007.71 1008.10 1008.41 1008.60 1008.86 1009.09 1009.38 1009.75 1010.00
1002.26 1002.29 1002.91 1003.40 1003.96 1003.67 1003.23 1003.17 1001.87 1001.66 1002.50 1004.03 1003.15 1002.51 1002.41 1000.91 1002.16 1001.84 1001.32 1001.76 1003.01 1003.56 1004.43 1004.63 1004.34 1004.23 1004.14 1004.32 1004.84 1005.11 1005.19 1005.16 1005.45 1005.91 1006.22 1006.64 1006.89 1007.16 1007.52 1007.80 1007.97 1008.34 1008.68
1001.49 1001.33 1001.73 1002.29 1002.84 1003.32 1003.37 1003.33 1003.43 1003.18 1002.03 1003.04 1001.94 1002.00 1000.02 1002.67 1003.02 1002.10 1000.90 1000.07 1000.63 1001.45 1002.10 1002.91 1003.25 1003.17 1003.09 1003.00 1002.98 1003.02 1003.31 1003.59 1003.90 1004.24 1004.75 1005.20 1005.47 1005.76 1006.07 1006.50 1006.76 1006.97 1007.34
1000.27 1000.26 1000.47 1001.04 1001.78 1002.47 1002.49 1002.29 1001.62 1001.01 1000.32 999.68 999.95 1000.05 1001.95 1004.24 1004.26 1002.85 999.22 998.40 998.33 999.16 999.77 1000.37 1001.20 1001.67 1001.69 1001.79 1001.75 1001.83 1001.71 1002.14 1002.57 1003.05 1003.52 1003.87 1004.08 1004.36 1004.66 1005.20 1005.58 1005.80 1006.26
999.96 999.22 999.35 999.70 999.86 1000.42 1000.82 1000.71 1000.38 1000.19 999.87 999.73 999.81 999.59 999.21 1002.46 1003.16 1000.66 999.29 997.92 996.73 997.01 997.91 999.06 999.82 1000.34 1000.41 1000.62 1000.82 1000.75 1001.30 1001.82 1001.98 1002.05 1002.32 1003.01 1003.16 1003.56 1004.28 1004.80 1005.27 1005.64 1005.87
Wind_Speed
15 15 15 13 13 11 9 9 8 9 8 7 6 6 8 7 7 4 4 4 4 3 0 2 1 4 4 4 3 2 5 8 8 3 4 9 6 7 6 6 9 6 5
15 12 14 15 14 14 12 9 10 9 8 8 7 6 7 8 7 6 5 3 5 3 3 3 2 2 3 4 3 4 5 8 10 12 5 5 6 7 6 7 8 9 7
14 15 13 13 12 13 13 12 10 9 9 9 8 7 8 8 8 6 5 6 6 6 5 3 3 2 1 4 4 2 3 8 9 9 6 3 4 6 5 5 5 5 8
15 16 14 12 12 12 8 12 11 9 9 8 8 10 10 10 9 7 6 6 5 4 5 5 3 2 3 2 3 2 1 5 9 8 8 8 6 6 6 4 4 4 5
11 14 13 12 9 8 8 10 9 9 9 11 10 10 11 8 8 9 7 6 6 6 5 4 4 7 10 6 3 4 4 4 4 4 4 8 7 7 7 5 6 3 4
11 12 10 8 5 6 5 8 8 9 9 11 10 9 7 8 14 12 10 8 6 7 6 5 5 7 6 5 6 14 9 2 4 4 4 5 5 7 4 4 4 3 3
7 8 12 11 10 8 6 7 9 8 8 11 10 9 7 5 14 12 8 6 6 5 5 5 6 6 7 5 3 8 9 7 8 4 2 3 5 6 3 4 0 1 3
9 9 11 11 10 8 7 8 9 7 9 10 10 12 10 6 9 11 8 6 6 7 7 7 4 7 7 7 5 4 4 3 5 4 1 4 4 4 5 3 1 2 2
10 11 11 12 10 9 8 8 8 8 8 9 6 8 8 7 9 10 8 6 6 6 5 6 5 6 7 8 6 6 6 5 5 9 8 9 8 8 5 4 3 2 2
12 11 10 11 10 10 10 9 7 8 7 7 8 12 14 9 12 12 9 6 6 4 4 4 5 4 10 7 3 6 6 6 5 4 2 4 3 3 4 2 3 4 4
9 10 10 10 10 9 9 7 8 7 6 6 9 11 10 11 10 13 12 5 8 7 7 7 5 9 9 8 4 4 5 6 7 5 4 4 4 4 3 3 4 3 3
11 11 11 10 9 9 10 8 8 8 8 9 9 9 7 7 9 14 14 12 3 9 7 6 6 13 11 9 6 3 5 8 6 5 5 5 6 5 5 6 7 6 4
12 12 12 11 10 9 11 11 9 10 8 8 8 8 8 8 7 14 16 14 11 4 5 7 15 18 15 8 6 7 5 4 4 6 5 5 5 7 8 8 7 7 6
13 13 11 12 12 10 10 10 10 10 9 9 9 8 8 8 8 8 9 8 8 6 2 3 8 13 12 10 8 5 5 5 5 5 6 6 5 5 6 5 7 7 6
13 12 12 11 12 11 12 11 12 12 12 11 11 10 10 11 12 14 13 11 10 9 7 4 6 7 7 8 8 9 8 8 9 8 7 5 5 5 5 6 7 8 9
13 12 11 11 12 11 11 10 14 14 16 17 13 11 10 14 15 20 22 18 16 15 5 8 9 9 10 10 10 10 10 13 11 10 9 8 7 6 6 5 7 9 9
14 13 12 14 13 14 12 12 11 8 6 12 18 12 9 9 16 22 21 21 20 14 11 10 10 10 11 11 11 11 12 12 12 10 10 10 9 8 8 8 8 9 9
13 17 14 13 12 11 13 13 12 10 13 12 10 10 12 13 16 18 20 14 5 7 11 12 12 12 11 12 12 12 11 10 10 11 11 11 10 9 10 10 10 10 9
11 6 9 11 4 10 15 14 13 14 12 13 11 8 10 5 11 14 20 13 13 14 13 13 13 12 12 10 9 9 10 10 10 10 11 11 11 10 11 11 11 12 11
8 11 9 2 3 4 5 9 10 13 10 13 12 13 11 8 9 10 11 15 14 14 14 15 14 13 12 11 12 9 9 11 11 10 10 11 11 11 12 11 11 11 9
5 6 3 6 4 4 5 12 10 10 12 23 15 14 21 16 15 13 11 13 14 13 14 14 14 14 12 12 12 10 13 12 12 12 11 11 10 10 11 11 11 10 11
5 6 4 3 2 0 2 6 6 12 19 15 12 16 25 15 14 16 16 16 15 15 12 13 12 13 13 13 12 12 13 12 12 11 11 11 11 10 11 10 10 11 12
8 7 4 5 6 6 5 4 1 15 16 13 10 14 8 13 13 14 16 16 15 14 13 13 13 13 12 12 14 14 14 14 13 10 11 12 11 11 11 11 12 13 12
11 10 6 5 5 6 6 8 10 17 16 12 13 9 7 12 16 14 14 14 15 15 15 15 15 18 14 14 12 13 14 14 11 12 16 13 11 12 12 12 12 13 10
12 11 9 9 8 8 7 7 9 6 6 7 7 2 5 0 15 30 17 15 16 16 16 15 14 17 22 22 19 20 16 10 14 13 10 10 14 16 12 9 9 7 5
15 13 9 8 9 10 8 7 7 4 4 6 8 5 4 6 17 19 25 10 11 10 9 11 16 23 25 22 24 24 18 13 12 15 9 7 9 6 3 4 6 3 3
Wind_Direction
199 190 186 189 198 207 228 197 203 205 193 217 201 192 187 196 199 213 199 207 192 210 79 107 127 316 337 322 59 135 170 162 143 110 140 159 151 155 135 135 157 163 161
198 203 189 184 193 192 205 192 198 208 197 188 204 196 183 194 199 189 199 180 150 205 192 94 236 267 316 353 30 50 41 117 142 139 128 144 140 132 150 169 179 190 169
194 191 187 195 195 197 194 183 197 203 203 186 196 198 195 195 191 174 165 161 163 206 138 187 226 245 194 339 35 297 118 111 133 135 148 156 148 153 159 204 208 174 172
189 189 194 193 206 206 195 182 188 199 196 202 202 202 194 185 176 163 164 152 172 161 147 189 198 203 219 165 269 263 231 130 137 149 167 174 173 161 171 191 229 143 137
195 191 190 190 201 195 193 176 185 186 196 203 199 208 197 184 174 162 158 162 174 144 167 195 174 93 79 64 320 204 154 151 148 167 149 157 178 164 185 199 206 183 166
187 192 158 158 200 196 200 169 177 195 201 203 199 208 192 210 149 157 161 177 171 158 164 133 135 130 106 91 52 70 70 153 183 153 165 164 192 169 179 218 181 158 191
167 160 153 169 181 193 193 171 194 198 194 200 195 187 175 212 146 151 155 162 155 162 148 177 185 178 158 158 127 103 78 72 71 93 39 119 142 166 155 165 282 171 140
156 163 155 167 182 187 189 183 199 196 199 200 193 189 186 152 158 161 160 152 164 160 180 193 187 151 172 157 176 172 133 103 46 43 348 128 110 125 129 145 103 90 119
168 174 163 172 182 181 182 199 189 194 199 202 177 144 155 165 177 167 165 171 177 159 168 186 156 157 158 123 182 184 160 121 85 75 81 98 92 127 142 131 160 161 235
180 181 170 175 181 184 180 192 194 194 189 178 165 159 190 163 182 181 190 185 154 156 144 169 137 189 166 136 210 181 166 158 164 147 118 84 135 142 141 171 187 193 217
181 182 174 177 183 186 181 180 176 185 182 172 163 170 182 165 183 191 204 228 171 182 180 191 169 153 171 170 180 172 180 154 166 172 175 173 183 196 214 220 230 250 279
180 185 181 180 186 191 181 168 180 181 175 184 174 169 180 173 173 202 207 220 279 181 180 176 166 168 180 183 184 191 189 170 160 196 190 195 188 198 196 203 209 232 227
187 184 183 181 193 187 184 173 183 179 186 193 183 182 188 184 185 194 206 219 232 231 181 192 161 175 177 183 180 177 201 206 200 196 215 203 194 195 189 191 200 205 227
191 187 183 187 194 194 189 182 186 188 196 188 199 192 187 198 184 182 204 211 228 251 131 113 175 172 175 181 172 190 210 218 222 234 212 214 202 191 193 169 184 193 206
195 193 193 190 191 204 202 191 198 200 197 197 201 198 192 206 194 180 182 196 198 205 183 137 150 167 182 196 195 194 206 219 226 231 237 237 210 199 198 190 195 199 209
200 200 200 197 190 207 198 210 208 216 196 206 207 201 203 204 175 170 177 189 183 170 200 204 189 193 197 199 204 210 203 209 216 220 226 230 225 219 213 208 200 214 224
203 206 207 207 205 193 200 197 215 212 197 221 206 182 208 203 182 178 183 185 178 158 203 211 223 212 206 208 209 209 216 214 204 214 218 220 227 231 215 221 222 219 224
237 228 211 215 215 201 208 195 197 216 206 216 227 208 202 195 187 190 183 157 160 215 204 212 216 228 222 211 210 215 213 216 208 206 217 219 221 221 227 229 228 231 226
305 284 276 247 261 280 210 209 200 201 220 204 201 171 200 196 187 181 165 188 193 198 208 212 223 226 228 231 225 216 213 219 215 212 216 214 221 221 226 229 233 231 224
311 319 323 355 29 16 10 320 18 324 230 232 199 199 170 152 186 188 196 202 198 203 202 208 217 217 229 220 221 221 215 217 220 216 216 212 217 217 228 230 229 232 232
268 269 321 321 358 44 19 340 314 303 325 266 220 198 179 189 202 203 199 210 215 210 211 207 209 219 228 223 234 224 222 225 220 223 225 221 218 214 220 228 233 230 230
253 253 275 266 71 124 195 217 280 285 285 286 273 200 171 190 197 196 201 206 213 225 221 218 219 214 212 219 225 224 235 232 223 224 226 225 230 225 227 229 222 225 231
262 240 223 217 180 185 183 257 204 286 270 273 291 358 268 190 201 207 202 202 208 213 222 229 229 228 223 212 213 219 227 226 228 228 222 225 225 221 223 229 222 225 234
250 260 228 212 218 189 196 202 205 233 251 221 228 189 53 325 285 232 210 201 204 206 206 214 223 228 226 230 231 213 216 222 225 218 219 229 230 219 224 229 229 227 228
239 259 243 191 207 220 203 212 236 267 306 321 298 173 111 352 290 266 210 206 199 206 206 201 210 218 225 228 227 230 241 213 205 218 226 234 228 224 225 225 222 213 180
279 267 259 282 199 208 213 213 226 233 244 268 273 262 177 250 256 273 267 208 198 209 186 201 219 214 217 220 225 228 232 214 191 200 194 217 229 211 200 225 228 217 183